Location: Monteux
(44.0348°N, 4.9972°E)
Time: 17:36:37
(UTC+00:00)

Cosmos 44 Rocket - Pass Details

Date: 30 November 2020
Orbit: 639 x 751 km, 65.1° (Epoch: 22 January)

Event Time Altitude Azimuth Distance (km) Brightness Sun altitude
Rises 18:35:39 0° 325° (NW) 3,173 7.1 -26.7°
Reaches altitude 10° 18:38:01 10° 326° (NW) 2,258 6.2 -27.1°
Enters shadow 18:42:16 61° 330° (NNW) 852 3.7 -27.9°
